110P/Hartley 3 

Epoch 2001 Apr. 1.0 TT = JDT 2452000.5  

T 2001 Mar. 21.40877 TT                                 Nakano

q   2.4783137            (2000.0)            P               Q

n   0.14333036     Peri.  167.93928     -0.10330848     -0.97575517

a   3.6161291      Node   287.75277     +0.89490735     -0.00651489

e   0.3146501      Incl.   11.68882     +0.43412924     -0.21876794

P   6.88

From 339 observations 1988-2001, mean residual 0".75.  Nongravitational

   parameters A1 = -2.38 +/- 0.29, A2 = -0.1144 +/- 0.0033.

Residuals in seconds of arc 

1988/                     941221 413  1.0-  0.1-    001206 704  0.3-  1.6-  

880219 675 (2.2-  0.5-)   941222 413  0.7-  0.4-    001206 704 (0.9-  2.4-) 

880219 675  0.3+  1.3-    941222 413  0.9-  0.5-    001215 402  0.4-  0.6+  

880219 413  0.7-  0.8-    941222 413  1.0-  0.4-    001215 402  0.5-  0.5+  

880222 413 (6.4-  0.7+)   1995/                     001215 402  0.5-  0.4+  

880222 413 (2.3-  0.7-)   950112 413  0.1+  0.1-    001216 402  0.3-  0.3+  

880223 413  0.0   1.1+    950113 413  0.0   0.2-    001216 402  0.9-  0.4+  

880225 413 (1.4-  2.4+)   950113 413  0.2-  0.6-    001216 941  0.6-  1.0-  

880306 675  0.7-  0.2+    950113 413  0.4-  0.3-    001218 170 (1.3-  2.0-) 

880306 675  0.8-  0.1+    950115 413  0.2+  0.2-    001218 170 (1.6-  2.1-) 

880307 675  0.2-  0.3+    950115 413  0.4+  0.0     001219 704 (2.0+  0.8+) 

880307 675  0.4-  0.3+    950126 360  0.1-  0.5-    001219 704  1.1+  0.1+  

880307 675  0.5-  0.4+    950126 360  0.1-  0.6-    001219 704  1.4+  0.6-  

880309 372  0.6+  0.1+    950129 691  0.2+  1.2-    001219 704  0.2+  0.1+  

880309 372  0.7-  0.1+    950129 691  0.1-  0.9-    001219 704 (0.5+  2.2-) 

880310 413  0.3+  0.5+    950129 691  0.2-  0.9-    001221 611  0.5+  0.1-  

880313 691  0.9-  0.4-    950201 413  0.4-  0.7-    001221 611  0.8+  0.1+  

880313 691  0.7-  0.2-    950219 897  0.2+  1.8+    001222 360  0.1+  0.0   

880313 691  0.8-  0.1-    950220 897  0.5-  0.3+    001222 360  0.1-  0.0   

880314 691  0.4+  0.4+    950220 897  1.2-  0.3-    001222 900  1.2+  0.5+  

880314 691  1.4+  0.5-    950220 897  1.3+  0.6-    001222 900  1.3+  0.6+  

880314 691  0.1+  0.6+    950227 360  0.1-  0.5-    001222 348  1.2+  0.6-  

880317 801  1.0+  0.9-    950227 360  0.3-  0.6-    001222 348  0.0   0.3-  

880412 413  0.7+  0.6+    950308 360  0.2-  0.5-    001223 349  0.5+  0.2-  

880420 413  1.1+  0.8-    950308 360  0.5+  0.1+    001223 349  0.0   0.2-  

880420 413  0.5-  1.2+    950321 897  0.2+  0.9+    001223 349  0.3+  0.5+  

880420 413  1.4+  1.9-    950321 897 (1.0+  3.2+)   001223 349  0.3+  0.3+  

880519 568 (4.9+  1.3-)   950402 693  0.2-  0.5-    001224 348  0.2+  0.4-  

1993/                     950402 693  0.3-  0.4-    001224 348  0.2+  0.0   

930623 691  1.4-  0.3+    950402 693  0.0   0.5-    001224 046  0.2-  0.2+  

930623 691  0.8-  0.1-    950403 360  0.8+  0.3+    001224 046  0.2-  0.3+  

930623 691  1.1-  0.4-    950403 360  1.2+  0.1-    001224 046  0.2-  0.2+  

930624 691  0.1+  0.6+    950419 897 (4.5+  2.4+)   001224 046  0.2-  0.2+  

930624 691  0.1+  0.0     950419 897 (2.9+  1.8+)   001224 046  0.2-  0.3+  

930624 691  1.5+  0.1+    950419 897 (3.4+  0.5+)   001230 699 (2.6+  0.2-) 

930724 691  0.8-  0.2+    1998/                     001230 699 (2.9+  0.0 ) 

930724 691  1.4-  0.4+    980530 568  0.8+  0.8+    001230 699 (4.1+  0.3-) 

930724 691  1.2-  0.1+    980530 568  0.9+  0.6+    001230 699 (2.7+  0.2-) 

930814 691  1.4-  0.6-    980530 568  1.2+  0.9+    001231 941  0.8+  1.3-  

930814 691  1.2-  0.3-    980531 568  0.9+  1.1+    2001/                   

930925 360  0.1+  0.7-    980531 568  0.8+  0.7+    010104 860  1.1+  0.6+  

930925 360  0.2+  0.6-    980618 696  0.5-  0.3+    010104 860  0.7+  0.0   

930926 360  0.2+  0.6-    980618 696  0.1-  0.6+    010104 860  1.6+  0.6-  

930926 360  0.3+  0.6-    980618 696  0.1-  0.5+    010106 349  0.0   0.0   

931011 360  0.1+  0.9-    1999/                     010106 349  0.1-  1.1+  

931011 360  0.0   0.9-    990913 695  0.5-  0.4-    010106 349  0.4+  0.9+  

931019 360  0.2-  1.1-    990913 695  0.4-  0.2-    010107 170  1.0+  1.1-  

931019 360  0.3-  1.1-    990913 695  0.3-  0.3-    010107 170  1.9+  1.8-  

931020 691  1.4-  0.6-    991113 695  0.2+  1.3+    010109 750  0.6+  0.7+  

931020 691  1.8-  0.5-    991113 695  0.1+  0.5+    010109 750  0.2+  0.8+  

931114 897  1.6+  0.4-    991113 695  0.2+  0.5+    010113 941  0.9+  1.0-  

931114 360  0.8+  0.8-    2000/                     010116 348  0.7+  0.0   

931114 360  0.6+  0.8-    000826 360  0.3-  0.2-    010116 348  0.2-  0.3+  

931114 897 (1.2+  2.3-)   000826 360  0.2-  0.1-    010117 900  1.6+  0.2+  

931115 411  1.2+  0.8-    000903 704  0.4+  0.5+    010117 900  1.1+  0.0   

931115 411  1.0+  0.5-    000903 704  0.4+  0.4+    010119 704  0.7-  1.2+  

931115 411  1.0+  0.5-    000903 704  0.7+  1.2+    010119 704  0.2+  0.9+  

931117 691  0.7-  0.2+    000912 046  0.5-  0.2+    010119 704 (2.7+  1.1+) 

931117 691  0.7-  0.0     000912 046  0.4-  0.3+    010119 704  0.2-  0.5+  

931117 691  0.7-  0.2-    000912 046  0.4-  0.6+    010119 704 (3.9+  1.1-) 

931118 360  0.7+  0.3-    000926 704  0.9-  0.5-    010119 170 (2.0+  0.1-) 

931118 360  0.7+  0.3-    000926 704  1.0-  0.6+    010121 360  0.2+  0.1+  

931207 411  0.3+  0.3+    000926 704  0.9-  0.4-    010121 360  0.3+  0.1-  

931207 411  0.0   0.7+    000926 704 (2.8+  0.2+)   010124 750  0.5+  0.5+  

931207 411  0.1+  0.4+    001025 704  0.8+  0.6-    010124 750  0.2+  0.8+  

931207 897 (2.0+  0.6-)   001025 704  0.9-  0.1+    010124 750  0.8+  0.1+  

931207 897 (2.2+  0.8-)   001025 704  0.9-  0.4+    010124 750  0.5+  0.3+  

931211 897 (2.3+  0.7-)   001025 704  1.6-  0.3-    010124 750  0.4+  0.2+  

931211 897  1.3+  0.9-    001025 704  1.7-  0.2-    010124 750  0.6+  0.5+  

931212 411  0.4+  0.4-    001027 903  1.3-  0.9-    010124 900 (2.1+  0.6-) 

931212 411  0.1+  0.9-    001027 903 (2.2-  1.0-)   010124 900  1.5+  0.2+  

931212 411  0.2-  1.0-    001103 349  1.2-  0.0     010125 750  0.4-  0.4+  

931212 360  0.0   0.7-    001103 349  1.4-  0.0     010125 750  0.1+  0.7+  

931212 360  0.1+  0.6-    001103 349  0.9-  1.0-    010125 750  0.1-  0.6+  

931215 381  0.2+  0.1-    001103 360  0.9-  0.0     010201 106  0.5+  0.5+  

931215 381  0.4+  0.2-    001103 360  0.9-  0.0     010201 106  0.6+  0.4+  

931215 381  0.4+  0.1-    001104 750  0.8-  1.4+    010201 106  0.5+  0.3+  

931215 360  0.1-  0.1-    001104 750  0.9-  0.5+    010202 170  1.6+  0.0   

931215 360  0.1-  0.0     001104 750  0.3-  0.6+    010209 355  1.2+  0.6+  

931229 897  0.1+  0.6+    001104 750  1.4-  0.4+    010209 355  0.7+  0.5+  

931229 897  0.5+  0.6+    001104 349  0.8-  0.1+    010209 355  0.5+  0.5+  

1994/                     001104 349  1.0-  0.8-    010209 170 (2.1+  0.2-) 

940104 360  0.2+  0.4+    001104 349  1.2-  0.2+    010209 170 (2.5+  0.2-) 

940104 360  0.3+  0.4+    001106 704  0.1-  0.0     010216 118  0.7+  0.6+  

940106 691  1.5-  0.1+    001106 704  1.1-  0.2-    010216 118  0.5+  0.4+  

940106 691  1.4-  0.2+    001106 704 (2.4-  0.5-)   010216 118  0.8+  0.7+  

940106 691  1.1-  0.3-    001106 402  0.7-  0.4-    010217 704  0.7+  1.4+  

940123 605  1.1+  0.3+    001106 402  0.7-  0.1-    010217 704  1.7+  0.6+  

940123 605 (2.9+  1.3+)   001106 402  0.4-  0.3-    010217 704  1.9+  1.2+  

940123 605 (3.8+  0.5+)   001118 349  0.9-  0.5-    010217 704 (3.2+  0.4+) 

940130 897  1.1+  0.4+    001118 349  0.8-  0.0     010217 704 (4.3+  0.8+) 

940130 897  1.1+  0.5+    001118 349  1.1-  0.1-    010217 349  1.3+  0.9+  

940203 360  0.3-  0.1+    001118 360  0.7-  0.2-    010217 349  1.2+  1.3+  

940203 360  0.4-  0.1+    001118 360  0.6-  0.2-    010217 349  1.3+  1.1+  

940210 897  1.6+  1.9+    001119 704  0.9-  0.5-    010219 750  0.7+  0.2-  

940210 897  0.1+  0.6+    001119 704  0.9-  0.7-    010219 750  0.8+  0.3+  

940214 605 (2.0+  0.5+)   001119 704  1.7-  0.8-    010219 750  0.0   0.5+  

940214 605  0.2+  1.5+    001119 704  1.4-  1.5-    010219 750  1.1+  0.9+  

940214 605  1.3+  1.3+    001119 704 (3.4-  2.7-)   010219 642 (4.4+  2.5+) 

940216 605  1.2+  1.0+    001120 921 (1.3-  3.9-)   010219 642 (3.7+  2.2+) 

940216 605 (1.2+  2.3+)   001120 170 (4.0-  2.0-)   010219 170 (3.2+  0.6+) 

940216 605 (2.3+  0.2+)   001120 170 (3.3-  1.7-)   010220 750  0.3+  0.9+  

940218 605  1.2+  1.4+    001121 750  1.0-  0.2+    010220 750  0.3+  0.8+  

940218 605  0.5-  0.4+    001121 750  1.4-  0.4-    010220 750  0.2+  0.6+  

940218 605  0.4+  1.1+    001121 750  0.2-  0.4-    010220 360  0.2+  0.4+  

940218 605  0.2-  1.8+    001123 352  0.4-  0.4-    010220 360  0.3+  0.3+  

940219 605  1.7+  0.8+    001123 352  0.8-  0.8-    010227 750  0.8+  0.4+  

940219 605 (0.7+  2.3+)   001124 900  0.4-  0.0     010227 750  1.0+  0.7+  

940223 897  0.1-  1.4+    001124 900  0.4-  0.1+    010227 750  1.1+  0.9+  

940223 897  1.3+  1.5+    001125 941 (2.3-  1.5-)   010301 704  0.6+  0.7+  

940302 360  0.8-  0.5+    001126 941  1.9-  1.3-    010301 704  0.0   1.9+  

940302 360  0.8-  0.5+    001128 352  0.3-  1.5-    010301 704  0.5+  0.8+  

940312 605  1.2+  0.0     001128 352  0.5-  0.9-    010301 704  1.0+  1.2+  

940312 605  1.6+  0.2+    001128 900  0.3-  0.3-    010301 704  0.7+  0.0   

940318 691  1.0-  0.2-    001128 900  0.8-  0.0     010310 750  1.7+  0.7+  

940318 691  0.3-  0.2+    001129 360  0.2-  0.0     010310 118  1.0+  0.5+  

940318 691  1.1-  0.3-    001129 360  0.2-  0.1+    010310 118 (2.0+  1.3+) 

940321 605  1.0+  0.2-    001201 704  0.1+  0.1+    010315 704  1.1+  0.6+  

940321 605 (1.8+  4.3+)   001201 704  1.0-  0.3-    010315 704  1.9+  0.2-  

940330 360  0.7-  0.1+    001201 704  0.7-  0.5-    010315 704 (2.6+  1.0+) 

940330 360  0.7-  0.0     001201 704  1.3-  0.3-    010315 704 (2.0+  0.1+) 

940403 897  0.5-  0.2-    001201 704  1.2-  0.5-    010315 704 (3.2+  0.5+) 

940403 897  0.1+  0.6+    001201 900  0.0   0.7-    010315 360  0.4+  0.1-  

940408 360  0.5-  1.2+    001201 900  0.3+  0.0     010315 360  0.7+  0.0   

940408 360  0.2+  1.2+    001202 402  0.1-  1.1-    010318 349  1.3+  0.9+  

941022 897 (2.6-  1.4+)   001202 402  0.2-  1.4-    010318 349  1.3+  1.3+  

941022 897  0.4-  1.0-    001202 941 (5.4-  2.1-)   010318 349  1.6+  0.8+  

941031 360  0.6-  0.2+    001202 941 (1.8-  4.7-)   010318 170 (4.2+  0.6+) 

941031 360  0.9-  0.4+    001204 704  0.5+  0.4-    010318 170 (2.9+  0.5+) 

941111 410  0.1-  1.0+    001204 704  0.4+  1.2-    010319 750 (2.0+  0.0 ) 

941111 410  1.6-  0.5+    001204 704  0.7-  1.0-    010319 750  0.6+  0.2+  

941203 897  1.6-  0.0     001204 704  0.5-  0.9-    010319 750 (2.9+  0.4+) 

941203 897  1.3-  0.2-    001204 704 (2.2-  1.9-)   010404 402  1.1+  0.1+  

941206 360  1.6-  0.1+    001206 704  0.2+  0.3-    010404 402  1.1+  0.2+  

941206 360  0.9-  0.6-    001206 704  0.4-  0.7-    010404 402  1.5+  0.0   

941221 413  0.9-  0.5-    001206 704  0.1-  1.1-    



NAKANO

         **** Don't distribute anyone except personal use only ****

                (C) Copyright 2001 OAA/ComputingSection

write mail from CFAD0::NAKANO on 2001-04-07 01:11:26(JST).

 





 110P/Hartley 3 

Epoch 2001 Apr. 1.0 TT = JDT 2452000.5  

T 2001 Mar. 21.41571 TT                                 Nakano

q   2.4783155            (2000.0)            P               Q

n   0.14333032     Peri.  167.93889     -0.10330066     -0.97575601

a   3.6161298      Node   287.75271     +0.89490752     -0.00650781

e   0.3146497      Incl.   11.68881     +0.43413076     -0.21876439

P   6.88

From 141 observations 1988-1998, mean residual 0".74.



NAKANO

write mail from CFAD0::NAKANO on 1998-07-23 21:39:18(JST).

 





–ß‚è‚Ü‚·B